Home > Weather > Dryden > Past weeks

Flag for Canada Past Weather in Dryden, Ontario, Canada — Yesterday and Last 2 Weeks

Now
54 °F

Clear.


Feels Like: 52 °F
Forecast: 53 / 74 °F
Wind: 7 mph from Northeast

Location: Dryden Airport

Current Time: Jul 28, 2016 at 3:49:01 AM

Latest Report: Jul 28, 2016 at 3:00 AM


Visibility: 9 mi

Pressure: 30.15 "Hg

Humidity: 88%

Dew Point: 50 °F

Location of DrydenLocation

Past Weather in Dryden — Graph

°F

Dryden Temperature Yesterday

Maximum temperature yesterday: 70 °F (at 4:00 PM)
Minimum temperature yesterday: 57 °F (at 5:00 AM)
Average temperature yesterday: 63 °F

High & Low Weather Summary for the Past Weeks

 TemperatureHumidityPressure
High86 °F (Jul 20, 1:00 PM)100% (Jul 13, 7:00 AM)30.22 "Hg (Jul 13, 7:00 AM)
Low48 °F (Jul 15, 4:00 AM)34% (Jul 26, 1:00 PM)29.25 "Hg (Jul 13, 4:57 AM)
Average67 °F71%29.90 "Hg
* Reported Jul 13 2:00 AM — Jul 28 2:00 AM, Dryden, Weather by CustomWeather, © 2016

Note: Actual official high and low records may vary slightly from our data, if they occured in-between our weather recording intervals... More about our weather records

Advertising

Dryden Weather History for the Previous 24 Hours

Scroll right to see more
 ConditionsComfort  
Time TempWeatherWind HumidityBarometerVisibility
2:00 AM
Thu, Jul 28
55 °FClear.6 mph82%30.16 "Hg9 mi
1:00 AM55 °FClear.7 mph82%30.16 "Hg9 mi
12:00 AM57 °FClear.8 mph82%30.14 "Hg9 mi
11:00 PM
Wed, Jul 27
57 °FClear.7 mph82%30.13 "Hg9 mi
10:00 PM59 °FClear.7 mph77%30.13 "Hg9 mi
9:00 PM61 °FClear.8 mph72%30.12 "Hg9 mi
8:00 PM64 °FSunny.8 mph64%30.12 "Hg9 mi
7:00 PM66 °FSunny.7 mph60%30.12 "Hg9 mi
6:00 PM70 °FScattered clouds.9 mph53%30.11 "Hg9 mi
5:00 PM70 °FScattered clouds.12 mph57%30.11 "Hg9 mi
4:00 PM70 °FPartly sunny.6 mph57%30.11 "Hg9 mi
3:00 PM68 °FOvercast.6 mph60%30.12 "Hg9 mi
2:00 PM68 °FOvercast.6 mph60%30.13 "Hg9 mi
1:00 PM66 °FMostly cloudy.8 mph64%30.13 "Hg9 mi
12:00 PM66 °FPartly sunny.9 mph68%30.13 "Hg9 mi
11:00 AM66 °FBroken clouds.7 mph64%30.12 "Hg9 mi
10:00 AM64 °FMostly cloudy.9 mph73%30.13 "Hg9 mi
9:03 AM63 °FPartly sunny.12 mph77%30.11 "Hg9 mi
8:00 AM63 °FPassing clouds.10 mph77%30.10 "Hg9 mi
7:00 AM59 °FSunny.12 mph88%30.10 "Hg9 mi
6:00 AM57 °FSunny.8 mph88%30.10 "Hg9 mi
5:00 AM57 °FClear.8 mph88%30.07 "Hg9 mi
4:00 AM59 °FClear.9 mph82%30.06 "Hg9 mi
3:00 AM61 °FClear.9 mph77%30.04 "Hg9 mi
Weather by CustomWeather, © 2016

See weather overviewHow to use our weather pages